STARLINK-32630, 62047

Orbit data source: Space-Track

STARLINK-32630, 62047 is a payload satellite owned by SpaceX/Seattle (US) in LEO that was launched on Thu, 21 Nov 2024 UTC via an FALCON 9 launch vehicle from the Air Force Eastern Test Range (AFETR). Payload-class satellites include a variety of spacecraft equipped with specific instruments for various scientific and technological missions. These include communications satellites like Starlink; space stations such as the ISS; scientific satellites like the Hubble; Earth observation satellites from companies like Planet Labs, Umbra, and HawkEye 360; GPS; miniature CubeSats for education and research; and military/defense satellites.

Loading next visibility...
Identifier
62047, 2024-216R
Orbit
LEO
Country
Flag of USUS
Related business
Manufacturer
SpaceX/Seattle
Mission
Operational Commercial Communications
Bus & Motor
STARLINK V2M, Unknown motor
Mass
730 kg wet, ~700 kg dry
Launch date (UTC)
2024-11-21 (1 year ago)
Launch vehicle
FALCON 9
Launch site
Air Force Eastern Test Range (AFETR)
Object type
Payload
Rocket body
Debris
Shape & HBR
Box + 2 Pan, 17.7 m
Radar Cross Section
33.884 m², Large (>1 m²)

Expand to show TLE details & history
Last TLE update: 10 hours ago

TLE from 10 hours ago
0 STARLINK-32630
1 62047U 24216R   26034.17709603  .00031171  00000-0  11364-2 0  9992
2 62047  43.0002  98.4720 0003408 289.1991  70.8492 15.27606513 68510
Epoch: 2026-02-03T04:15Z
TLE epoch observation values (Epoch: 2026-02-03T04:15:01.096Z)
Latitude
0.00002°
Longitude
-98.64432°
Altitude
481.979 km
Speed
7.627 km/s
True Right ascension
06h 33m 53s
True Declination
0° 00' 00"
Sunlit
Object was in full shadow at epoch
Visualization orbit readout
Latitude
Unknown
Longitude
Unknown
Altitude
Unknown
Speed
Unknown
Apparent Right ascension
Unknown
Apparent Declination
Unknown
Sunlit
N/A
Visualization observer readout
Local Sidereal Time
16:31:46
Azimuth
Unknown
Elevation
Unknown
Doppler factor
Unknown
Orbital elements
Apogee altitude
487.254 km
Perigee altitude
482.576 km
Semi-major axis
6,863.052 km
Eccentricity
0.00034
Inclination
43.0002°
RAAN
98.472°
Arg. of periapsis
289.1991°
True anomaly
70.8861°
Mean anomaly
70.8492°
Eccentric anomaly
70.86765°
Mean motion
3.8174 °/min
Orbital period
94.31 mins
BSTAR
0.0011364
Loading maneuver chart data...
Computing Atmospheric mass density...
Loading historical data...
Loading historical data...
Loading historical data...
Loading historical data...
Loading historical data...
Loading historical data...
Loading historical data...

Documentation

Showing up to 5 results
|